Flag for U.S.A. Weather past 2 weeks in Mobile, Alabama, U.S.A.

Now
79 °F

Rain. Passing clouds.


Feels Like: 84 °F
Forecast: 77 / 90 °F
Wind: No wind

Location: Mobile Downtown Airport

Current Time: Aug 31, 2014 at 5:19:40 AM

Latest Report: Aug 31, 2014 at 4:53 AM


Visibility: 10 mi

Pressure: 30.07 "Hg

Humidity: 97%

Dew point: 78 °F

Location of MobileLocation

Historic Weather in Mobile — Graph

°F

Mobile temperature yesterday

Maximum temperature yesterday: 90 °F (at 12:53 PM)
Minimum temperature yesterday: 76 °F (at 6:53 PM)
Average temperature yesterday: 82 °F

Past Weeks' High & Low Weather Summary

 TemperatureHumidityPressure
High99 °F (Aug 24, 3:53 PM)100% (Aug 17, 4:53 AM)30.16 "Hg (Aug 17, 4:53 AM)
Low71 °F (Aug 16, 4:53 AM)41% (Aug 24, 3:53 PM)29.83 "Hg (Aug 24, 4:53 PM)
Average83 °F78%30.01 "Hg
* Reported Aug 16 3:53 AM — Aug 31 3:53 AM, Mobile, Weather by CustomWeather, © 2014

Note: Actual official high and low records may vary slightly from our data, if they occured in-between our weather recording intervals... More about our weather records

Advertising

Mobile weather history for previous 24 hours

 ConditionsComfort  
Time TempWeatherWind HumidityBarometerVisibility
3:53 AM
Aug 31
81 °FRain. Clear.3 mph91%30.07 "Hg10 mi
2:53 AM82 °FRain. Passing clouds.7 mph88%30.06 "Hg10 mi
1:53 AM82 °FRain. Passing clouds.7 mph91%30.08 "Hg10 mi
1:00 AM80 °FRain. Passing clouds.6 mph94%30.08 "Hg10 mi
11:53 PM
Aug 30
78 °FRain. Passing clouds.3 mph96%30.09 "Hg10 mi
10:53 PM77 °FRain. Overcast.No wind96%30.09 "Hg10 mi
9:53 PM77 °FRain. Passing clouds.3 mph96%30.09 "Hg10 mi
8:53 PM78 °FRain. Passing clouds.No wind93%30.08 "Hg10 mi
7:53 PM77 °FRain. Broken clouds.No wind90%30.08 "Hg10 mi
6:53 PM76 °FRain. Fog.5 mph88%30.06 "Hg6 mi
5:53 PM77 °FThundershowers. Partly sunny.7 mph85%30.06 "Hg6 mi
4:53 PM84 °FLight rain. Broken clouds.12 mph83%30.05 "Hg6 mi
3:53 PM85 °FBroken clouds.8 mph80%30.05 "Hg10 mi
2:53 PM85 °FPartly sunny.10 mph86%30.06 "Hg10 mi
2:00 PM90 °FPartly sunny.12 mph70%30.07 "Hg10 mi
12:53 PM90 °FScattered clouds.15 mph73%30.07 "Hg10 mi
11:53 AM89 °FScattered clouds.16 mph72%30.08 "Hg10 mi
10:53 AM88 °FPassing clouds.15 mph75%30.09 "Hg10 mi
9:53 AM87 °FScattered clouds.9 mph80%30.09 "Hg10 mi
8:53 AM85 °FSunny.10 mph86%30.07 "Hg10 mi
7:53 AM83 °FSunny.8 mph88%30.06 "Hg10 mi
6:53 AM81 °FClear.7 mph94%30.05 "Hg10 mi
5:53 AM82 °FClear.7 mph85%30.05 "Hg10 mi
Weather by CustomWeather, © 2014

See weather overviewHow to use our weather pages